Regional Weather Roundup
Issued by NWS Goodland, KS

Home | Current Version | Previous Version | Graphics & Text | Print | Product List | Glossary On
Versions: 1 2 3 4 5 6 7 8 9 10 11 12 13 14 15 16 17 18 19 20 21 22 23 24 25 26 27 28 29 30 31 32 33 34 35 36 37 38 39 40 41 42 43 44 45 46 47 48 49 50
938
ASUS43 KGLD 301159
RWRGLD

GOODLAND FORECAST AREA HOURLY WEATHER ROUNDUP
NATIONAL WEATHER SERVICE GOODLAND KS
600 AM MDT SUN APR 30 2017

...OFFICIAL OBSERVATIONS...

CITY           SKY/WX    TMP DP  RH WIND       PRES   REMARKS
GOODLAND KS    CLOUDY    32  30  92 N38G52    29.69F FOG     WCI  16
HILL CITY KS   LGT SNOW  34  33  96 N32G46    29.59F FOG     WCI  20
IMPERIAL NEB   CLOUDY    38  24  57 N24G31    29.86F
MCCOOK NEB     LGT SNOW  34  32  92 N32G38    29.76F FOG     WCI  20
AKRON CO       CLOUDY    31  23  72 N24       29.92F WCI  17
BURLINGTON CO  NOT AVBL
LIMON CO       MIX PCPN  29  22  75 N31G43    29.88F WCI  13
$$

...UNOFFICIAL OBSERVATIONS...

CITY           SKY/WX    TMP DP  RH WIND       PRES   REMARKS
LENORA KS        N/A     31  32 100 MISG        N/A
NORTON KS      CLOUDY    34  30  86 N26G35    29.64F
SHARON SPRINGS   N/A     31  31  99 N18G26      N/A  WCI  19
TRENTON NEB      N/A     34  32  92 NW20        N/A
KIT CARSON CO    N/A     34  25  69 CALM        N/A
YUMA CO        CLOUDY    34  23  64 N24G30    29.89F
$$




USA.gov is the U.S. government's official web portal to all federal, state and local government web resources and services.